Lander, WY

2:06 PM MDT on July 23, 2016 (GMT -0600)
Hunt

Weather History for KLND - February, 2013

Change the Weather History Date:

Saturday, February 23, 2013

  Actual Average Record
Temperature  
Mean Temperature 26 °F 28 °F  
Max Temperature 37 °F 39 °F 63 °F (1954)
Min Temperature 14 °F 16 °F -20 °F (1913)
Degree Days  
Heating Degree Days 39 37  
Month to date heating degree days 939 933  
Since 1 July heating degree days 5152 5523  
Cooling Degree Days 0 0  
Month to date cooling degree days 0 0  
Year to date cooling degree days 0 0  
Moisture  
Dew Point 16 °F    
Average Humidity 67    
Maximum Humidity 96    
Minimum Humidity 38    
Precipitation  
Precipitation 0.32 in 0.02 in 1.04 in (1935)
Month to date precipitation 1.19 0.45  
Year to date precipitation 1.89 0.86  
Snow  
Snow 3.80 in 0.40 in - ()
Month to date snowfall 21.0 8.3  
Since 1 July snowfall 49.4 51.6  
Snow Depth 6.00 in    
Sea Level Pressure  
Sea Level Pressure 29.72 in    
Wind  
Wind Speed 5 mph (NNW)    
Max Wind Speed 21 mph    
Max Gust Speed 26 mph    
Visibility 6 miles    
Events Fog , Snow    
T = Trace of Precipitation, MM = Missing Value Source: NWS Daily Summary

Daily Weather History Graph

Daily Weather History Graph

Search for Another Location

Airport or City:

Trip Planner

Search our weather history database for the weather conditions in past years. The results will help you decide how hot, cold, wet, or windy it might be!

Date:

Astronomy

Feb. 23, 2013 Rise Set
Actual Time 6:59 AM MST 5:57 PM MST
Civil Twilight 6:31 AM MST 6:25 PM MST
Nautical Twilight 5:58 AM MST 6:58 PM MST
Astronomical Twilight 5:25 AM MST 7:31 PM MST
Moon 4:09 PM MST 5:25 AM MST
Length of Visible Light 11h 54m
Length of Day
10h 57m
Waxing Gibbous, 95% of the Moon is Illuminated
Feb 23
Waxing Gibbous
Feb 25
Full
Mar 4
Last Quarter
Mar 11
New
Mar 19
First Quarter

Hourly Weather History & Observations

Time (MST) Temp. Windchill Dew Point Humidity Pressure Visibility Wind Dir Wind Speed Gust Speed Precip Events Conditions
12:53 AM 16.0 °F 10.4 °F 3.9 °F 59% 29.80 in 10.0 mi SE 3.5 mph - N/A   Clear
1:53 AM 17.1 °F 6.6 °F 6.1 °F 62% 29.79 in 10.0 mi WNW 8.1 mph - N/A   Clear
2:53 AM 18.0 °F - 6.1 °F 60% 29.75 in 10.0 mi Calm Calm - N/A   Clear
3:53 AM 21.0 °F 14.6 °F 8.1 °F 57% 29.73 in 10.0 mi SW 4.6 mph - N/A   Clear
4:53 AM 19.0 °F 12.3 °F 7.0 °F 59% 29.73 in 10.0 mi SSE 4.6 mph - N/A   Clear
5:53 AM 19.0 °F - 8.1 °F 62% 29.73 in 10.0 mi Calm Calm - N/A   Clear
6:53 AM 18.0 °F 12.7 °F 9.0 °F 68% 29.74 in 10.0 mi WNW 3.5 mph - N/A   Clear
7:53 AM 21.0 °F 14.6 °F 10.0 °F 63% 29.74 in 10.0 mi WNW 4.6 mph - N/A   Clear
8:53 AM 24.1 °F 19.7 °F 10.9 °F 57% 29.71 in 10.0 mi SE 3.5 mph - N/A   Partly Cloudy
9:53 AM 26.1 °F - 10.0 °F 51% 29.69 in 10.0 mi Calm Calm - N/A   Clear
10:53 AM 32.0 °F 27.5 °F 12.0 °F 44% 29.67 in 10.0 mi WNW 4.6 mph - N/A   Clear
11:53 AM 35.1 °F - 12.0 °F 39% 29.64 in 10.0 mi Calm Calm - N/A   Clear
12:53 PM 36.0 °F 32.1 °F 16.0 °F 44% 29.64 in 10.0 mi East 4.6 mph - N/A   Clear
1:53 PM 36.0 °F 32.1 °F 16.0 °F 44% 29.61 in 10.0 mi SE 4.6 mph - N/A   Mostly Cloudy
2:53 PM 35.1 °F - 15.1 °F 44% 29.63 in 10.0 mi Calm Calm - N/A   Overcast
3:53 PM 34.0 °F 31.0 °F 18.0 °F 52% 29.64 in 10.0 mi NW 3.5 mph - N/A   Overcast
4:53 PM 33.1 °F - 18.0 °F 54% 29.67 in 10.0 mi Calm Calm - N/A   Overcast
5:53 PM 30.9 °F - 21.0 °F 67% 29.70 in 10.0 mi Calm Calm - N/A   Overcast
6:10 PM 30.2 °F 26.7 °F 21.2 °F 69% 29.62 in 2.0 mi ESE 3.5 mph - 0.00 in Snow Light Snow
6:24 PM 28.4 °F - 24.8 °F 86% 29.63 in 1.8 mi Calm Calm - 0.01 in Snow Light Snow
6:53 PM 28.0 °F 22.8 °F 25.0 °F 88% 29.76 in 1.0 mi WNW 4.6 mph - 0.02 in Snow Light Snow
7:05 PM 28.4 °F 21.2 °F 24.8 °F 86% 29.66 in 0.8 mi North 6.9 mph - 0.00 in Snow Light Snow
7:14 PM 28.4 °F 19.1 °F 24.8 °F 86% 29.66 in 1.0 mi North 10.4 mph - 0.01 in Snow Light Snow
7:31 PM 26.6 °F 17.5 °F 24.8 °F 93% 29.67 in 0.8 mi North 9.2 mph - 0.02 in Snow Light Snow
7:53 PM 27.0 °F 19.5 °F 25.0 °F 92% 29.79 in 0.5 mi North 6.9 mph - 0.05 in Fog , Snow Snow
8:50 PM 24.8 °F 12.9 °F 21.2 °F 86% 29.73 in 1.0 mi North 13.8 mph 19.6 mph 0.08 in Snow Light Snow
8:53 PM 24.1 °F 11.0 °F 21.9 °F 91% 29.85 in 1.0 mi North 16.1 mph 23.0 mph 0.08 in Snow Light Snow
9:07 PM 23.0 °F 11.7 °F 21.2 °F 93% 29.74 in 1.0 mi North 11.5 mph 23.0 mph 0.00 in Snow Light Snow
9:24 PM 23.0 °F 12.4 °F 19.4 °F 86% 29.75 in 0.8 mi North 10.4 mph - 0.01 in Snow Light Snow
9:35 PM 23.0 °F 14.7 °F 21.2 °F 93% 29.76 in 0.5 mi North 6.9 mph - 0.03 in Fog , Snow Snow
9:53 PM 23.0 °F 10.6 °F 21.0 °F 92% 29.87 in 0.5 mi NNW 13.8 mph 17.3 mph 0.05 in Fog , Snow Snow
10:53 PM 21.9 °F 9.2 °F 19.9 °F 92% 29.89 in 0.5 mi NNW 13.8 mph - 0.07 in Fog , Snow Snow
11:53 PM 21.9 °F 10.4 °F 19.9 °F 92% 29.90 in 1.0 mi NNW 11.5 mph - 0.05 in Snow Light Snow